Starlink 30908

operational
NORAD ID: 58424 Int'l Des: 2023-180 Owner: SPXS Country: US Constellation: starlink
LEOCIRCULAR

Über Starlink 30908

Beschreibung wird geladen...

Live-Position

3D-Globus wird geladen...

Nächste Überflüge

Höhenverlauf

Altitude vs Time

uPlot chart will show altitude changes over time

Zweizeiliger Elementsatz

1 58424U 23180Y 25261.08567062 -.00001955 00000-0 -12971-3 0 9992
2 58424 42.9976 272.7332 0000947 296.3647 63.7098 15.02531060101632
Epoch: 18. Sept. 2025 • Age: 12 hours

Aktueller Status

Höhe 569.3 km
Geschwindigkeit 7.58 km/s
Subsatellitenpunkt -37.02°S, 0.39°E
Startdatum 22. Nov. 2023
Alter 1.8 years
Typ internet

Technische Details

Klassifizierung Payload
Masse 730.00 kg
Trockenmasse 700.00 kg
Gesamtmasse 730.00 kg
Länge 0.30 m
Durchmesser 4.10 m
Spannweite 29.00 m
Form Box + pan
Hersteller SPXS
Bus-Typ Starlink V2M
Phasenstatus In Orbit
Besitzer/Staat SPXS/US

Große Konstellationen

Loading constellations...